Home > Weather > Espoo > Past weeks

Flag for Finland Past Weather in Espoo, Finland — Yesterday and Last 2 Weeks

Now
61 °F

Partly sunny.


Feels Like: 61 °F
Forecast: 47 / 67 °F
Wind: 8 mph from East

Location: Helsinki-Vantaa

Current Time: May 26, 2016 at 9:58:50 AM

Latest Report: May 26, 2016 at 9:20 AM


Visibility: N/A

Pressure: 29.74 "Hg

Humidity: 83%

Dew Point: 55 °F

Location of EspooLocation

Past Weather in Espoo — Graph

°F

Espoo Temperature Yesterday

Maximum temperature yesterday: 75 °F (at 11:50 AM)
Minimum temperature yesterday: 48 °F (at 3:20 AM)
Average temperature yesterday: 64 °F

High & Low Weather Summary for the Past Weeks

 TemperatureHumidityPressure
High75 °F (May 25, 11:50 AM)100% (May 14, 5:20 PM)30.09 "Hg (May 14, 5:20 PM)
Low34 °F (May 12, 4:50 AM)24% (May 25, 5:50 PM)29.53 "Hg (May 14, 10:50 AM)
Average56 °F65%29.84 "Hg
* Reported May 11 8:20 AM — May 26 8:20 AM, Espoo, Weather by CustomWeather, © 2016

Note: Actual official high and low records may vary slightly from our data, if they occured in-between our weather recording intervals... More about our weather records

Advertising

Espoo Weather History for the Previous 24 Hours

Scroll right to see more
 ConditionsComfort  
Time TempWeatherWind HumidityBarometerVisibility
8:20 AM
Thu, May 26
63 °FSunny.7 mph77%29.74 "Hg10 mi
7:50 AM63 °FSunny.5 mph77%29.71 "Hg10 mi
7:20 AM63 °FSunny.5 mph73%29.71 "Hg10 mi
6:50 AM59 °FSunny.5 mph77%29.71 "Hg10 mi
6:20 AM57 °FSunny.2 mph82%29.71 "Hg10 mi
5:50 AM54 °FSunny.5 mph82%29.71 "Hg10 mi
5:20 AM52 °FSunny.1 mph88%29.71 "Hg10 mi
4:50 AM52 °FClear.5 mph88%29.71 "Hg10 mi
4:20 AM50 °FClear.2 mph88%29.71 "Hg10 mi
3:50 AM50 °FClear.3 mph88%29.71 "Hg10 mi
3:20 AM50 °FClear.5 mph88%29.71 "Hg10 mi
2:50 AM50 °FPassing clouds.5 mph88%29.71 "HgN/A
2:20 AM54 °FClear.2 mph82%29.71 "Hg10 mi
1:50 AM54 °FClear.2 mph77%29.71 "Hg10 mi
1:20 AM52 °FClear.2 mph82%29.74 "Hg10 mi
12:50 AM50 °FClear.1 mph88%29.74 "Hg10 mi
12:20 AM52 °FClear.2 mph88%29.74 "Hg10 mi
11:50 PM
Wed, May 25
54 °FClear.2 mph82%29.74 "Hg10 mi
11:20 PM57 °FClear.3 mph72%29.74 "Hg10 mi
10:50 PM59 °FSunny.1 mph63%29.74 "Hg10 mi
10:20 PM61 °FSunny.3 mph59%29.74 "Hg10 mi
9:50 PM64 °FSunny.6 mph52%29.77 "Hg10 mi
9:20 PM66 °FSunny.1 mph46%29.77 "Hg10 mi
8:50 PM70 °FSunny.5 mph38%29.77 "Hg10 mi
8:20 PM70 °FSunny.7 mph38%29.77 "Hg10 mi
7:50 PM72 °FSunny.8 mph31%29.77 "Hg10 mi
7:20 PM73 °FPassing clouds.8 mph27%29.77 "HgN/A
6:50 PM73 °FSunny.8 mph27%29.77 "Hg10 mi
6:20 PM75 °FSunny.9 mph27%29.80 "Hg10 mi
5:50 PM75 °FPassing clouds.7 mph24%29.80 "HgN/A
5:20 PM73 °FPassing clouds.9 mph29%29.80 "HgN/A
4:50 PM73 °FPassing clouds.10 mph31%29.80 "HgN/A
4:20 PM73 °FPassing clouds.12 mph36%29.80 "HgN/A
3:50 PM75 °FSunny.13 mph34%29.80 "Hg10 mi
3:20 PM73 °FSunny.13 mph36%29.83 "Hg10 mi
2:50 PM73 °FSunny.14 mph33%29.83 "Hg10 mi
2:20 PM75 °FSunny.14 mph34%29.83 "Hg10 mi
1:50 PM75 °FSunny.14 mph36%29.83 "Hg10 mi
1:20 PM75 °FSunny.12 mph39%29.83 "Hg10 mi
12:50 PM73 °FPassing clouds.10 mph41%29.83 "HgN/A
12:20 PM75 °FPassing clouds.6 mph41%29.83 "HgN/A
11:50 AM75 °FPassing clouds.8 mph44%29.86 "HgN/A
11:20 AM73 °FSunny.6 mph44%29.86 "Hg10 mi
10:50 AM73 °FPassing clouds.6 mph41%29.86 "HgN/A
10:20 AM72 °FPassing clouds.5 mph47%29.89 "HgN/A
9:50 AM72 °FSunny.2 mph50%29.89 "Hg10 mi
9:20 AM68 °FSunny.2 mph56%29.89 "Hg10 mi
Weather by CustomWeather, © 2016

See weather overviewHow to use our weather pages